• în Republica Moldova
  • Lista ţărilor
  • Pe 7 zile
  • Temperatura apei
  • Hartă satelitară
  • Meteo pe hartă
  • Widget-uri
  • user-avatar
    Intrare

    Meteo pe oră la Djelfa

    Astăzi, 28 Martie, Marţi

    Timp Temperatura Precipitaţii Vânt Presiune Umiditate
    00:00 +11°C° 0 mm 3 m/s 667 mmHg 57%
    01:00 +10°C° 0,2 mm 3 m/s 667 mmHg 60%
    02:00 +10°C° 0,2 mm 3 m/s 667 mmHg 62%
    03:00 +9°C° 0,2 mm 3 m/s 667 mmHg 65%
    04:00 +9°C° 0,3 mm 3 m/s 667 mmHg 66%
    05:00 +9°C° 0,3 mm 3 m/s 667 mmHg 66%
    06:00 +8°C° 0 mm 2 m/s 667 mmHg 62%
    07:00 +10°C° 0,1 mm 3 m/s 668 mmHg 53%
    08:00 +11°C° 0,1 mm 4 m/s 668 mmHg 44%
    09:00 +12°C° 0,1 mm 4 m/s 669 mmHg 35%
    10:00 +14°C° 0 mm 5 m/s 669 mmHg 32%
    11:00 +15°C° 0 mm 5 m/s 669 mmHg 29%
    12:00 +16°C° 0 mm 6 m/s 669 mmHg 25%
    13:00 +16°C° 0 mm 6 m/s 669 mmHg 26%
    14:00 +17°C° 0 mm 6 m/s 669 mmHg 26%
    15:00 +17°C° 0 mm 7 m/s 669 mmHg 26%
    16:00 +16°C° 0 mm 7 m/s 668 mmHg 32%
    17:00 +14°C° 0 mm 7 m/s 668 mmHg 37%
    18:00 +12°C° 0 mm 7 m/s 668 mmHg 43%
    19:00 +11°C° 0 mm 6 m/s 668 mmHg 49%
    20:00 +10°C° 0 mm 6 m/s 669 mmHg 55%
    21:00 +9°C° 0 mm 6 m/s 669 mmHg 61%
    22:00 +8°C° 0 mm 5 m/s 669 mmHg 64%
    23:00 +7°C° 0 mm 5 m/s 669 mmHg 66%

    Mâine, 29 Martie, Miercuri

    Timp Temperatura Precipitaţii Vânt Presiune Umiditate
    00:00 +6°C° 0 mm 4 m/s 668 mmHg 69%
    01:00 +6°C° 0 mm 4 m/s 668 mmHg 71%
    02:00 +5°C° 0 mm 4 m/s 668 mmHg 73%
    03:00 +5°C° 0 mm 4 m/s 668 mmHg 75%
    04:00 +4°C° 0 mm 3 m/s 668 mmHg 77%
    05:00 +4°C° 0 mm 3 m/s 668 mmHg 78%
    06:00 +4°C° 0 mm 3 m/s 668 mmHg 79%
    07:00 +6°C° 0 mm 4 m/s 669 mmHg 66%
    08:00 +8°C° 0 mm 4 m/s 669 mmHg 53%
    09:00 +10°C° 0 mm 5 m/s 670 mmHg 40%
    10:00 +12°C° 0 mm 4 m/s 670 mmHg 35%
    11:00 +13°C° 0 mm 4 m/s 670 mmHg 30%
    12:00 +15°C° 0 mm 4 m/s 670 mmHg 25%
    13:00 +15°C° 0 mm 4 m/s 670 mmHg 23%
    14:00 +17°C° 0 mm 4 m/s 669 mmHg 22%
    15:00 +17°C° 0 mm 4 m/s 669 mmHg 20%
    16:00 +15°C° 0 mm 4 m/s 669 mmHg 22%
    17:00 +16°C° 0 mm 3 m/s 669 mmHg 24%
    18:00 +14°C° 0 mm 3 m/s 668 mmHg 26%
    19:00 +13°C° 0 mm 3 m/s 669 mmHg 30%
    20:00 +13°C° 0 mm 2 m/s 669 mmHg 33%
    21:00 +12°C° 0 mm 2 m/s 669 mmHg 37%
    22:00 +10°C° 0 mm 2 m/s 669 mmHg 40%
    23:00 +9°C° 0 mm 2 m/s 669 mmHg 44%

    Poimâine, 30 Martie, Joi

    Timp Temperatura Precipitaţii Vânt Presiune Umiditate
    00:00 +10°C° 0 mm 1 m/s 669 mmHg 48%
    01:00 +9°C° 0 mm 1 m/s 668 mmHg 48%
    02:00 +8°C° 0 mm 1 m/s 668 mmHg 49%
    03:00 +8°C° 0 mm 1 m/s 668 mmHg 49%
    04:00 +8°C° 0 mm 1 m/s 668 mmHg 49%
    05:00 +8°C° 0 mm 1 m/s 668 mmHg 48%
    06:00 +7°C° 0 mm 1 m/s 668 mmHg 48%
    07:00 +10°C° 0 mm 1 m/s 669 mmHg 41%
    08:00 +12°C° 0 mm 2 m/s 670 mmHg 34%
    09:00 +13°C° 0 mm 3 m/s 670 mmHg 26%
    10:00 +16°C° 0 mm 3 m/s 670 mmHg 24%
    11:00 +17°C° 0 mm 3 m/s 670 mmHg 21%
    12:00 +18°C° 0 mm 3 m/s 670 mmHg 18%
    13:00 +19°C° 0 mm 3 m/s 670 mmHg 17%
    14:00 +20°C° 0 mm 3 m/s 670 mmHg 15%
    15:00 +21°C° 0 mm 3 m/s 669 mmHg 14%
    16:00 +20°C° 0 mm 3 m/s 669 mmHg 16%
    17:00 +19°C° 0 mm 3 m/s 669 mmHg 19%
    18:00 +18°C° 0 mm 2 m/s 668 mmHg 21%
    19:00 +17°C° 0 mm 3 m/s 669 mmHg 22%
    20:00 +15°C° 0 mm 4 m/s 669 mmHg 24%
    21:00 +14°C° 0 mm 4 m/s 669 mmHg 25%
    22:00 +13°C° 0 mm 4 m/s 669 mmHg 26%
    23:00 +13°C° 0 mm 4 m/s 669 mmHg 28%

    31 Martie, Vineri

    Timp Temperatura Precipitaţii Vânt Presiune Umiditate
    00:00 +12°C° 0 mm 4 m/s 669 mmHg 29%
    01:00 +12°C° 0 mm 4 m/s 668 mmHg 31%
    02:00 +11°C° 0 mm 3 m/s 668 mmHg 33%
    03:00 +10°C° 0 mm 3 m/s 668 mmHg 36%
    04:00 +10°C° 0 mm 3 m/s 668 mmHg 37%
    05:00 +10°C° 0 mm 3 m/s 668 mmHg 38%
    06:00 +10°C° 0 mm 3 m/s 668 mmHg 40%
    07:00 +12°C° 0 mm 4 m/s 668 mmHg 35%
    08:00 +14°C° 0 mm 4 m/s 669 mmHg 30%
    09:00 +18°C° 0 mm 4 m/s 669 mmHg 25%
    10:00 +19°C° 0 mm 5 m/s 669 mmHg 23%
    11:00 +21°C° 0 mm 5 m/s 669 mmHg 20%
    12:00 +23°C° 0 mm 5 m/s 669 mmHg 18%
    13:00 +22°C° 0,1 mm 5 m/s 668 mmHg 20%
    14:00 +22°C° 0,1 mm 5 m/s 668 mmHg 22%
    15:00 +21°C° 0,1 mm 5 m/s 667 mmHg 24%
    16:00 +20°C° 0,8 mm 5 m/s 667 mmHg 32%
    17:00 +18°C° 0,8 mm 4 m/s 667 mmHg 40%
    18:00 +16°C° 0,8 mm 3 m/s 667 mmHg 47%
    19:00 +16°C° 0,3 mm 3 m/s 667 mmHg 50%
    20:00 +14°C° 0,3 mm 3 m/s 667 mmHg 52%
    21:00 +14°C° 0,3 mm 3 m/s 668 mmHg 54%
    22:00 +13°C° 0 mm 3 m/s 667 mmHg 55%
    23:00 +12°C° 0 mm 3 m/s 667 mmHg 57%

    1 Aprilie, Sâmbătă

    Timp Temperatura Precipitaţii Vânt Presiune Umiditate
    00:00 +11°C° 0 mm 3 m/s 666 mmHg 58%
    01:00 +11°C° 0 mm 4 m/s 666 mmHg 58%
    02:00 +10°C° 0 mm 4 m/s 665 mmHg 58%
    03:00 +10°C° 0 mm 4 m/s 665 mmHg 58%
    04:00 +8°C° 0 mm 5 m/s 665 mmHg 58%
    05:00 +8°C° 0 mm 5 m/s 664 mmHg 59%
    06:00 +8°C° 0 mm 6 m/s 664 mmHg 60%
    07:00 +9°C° 0 mm 7 m/s 665 mmHg 55%
    08:00 +11°C° 0 mm 8 m/s 665 mmHg 49%
    09:00 +12°C° 0 mm 9 m/s 666 mmHg 44%
    10:00 +13°C° 0 mm 9 m/s 665 mmHg 39%
    11:00 +15°C° 0 mm 9 m/s 665 mmHg 34%
    12:00 +16°C° 0 mm 10 m/s 665 mmHg 30%
    13:00 +16°C° 0 mm 10 m/s 665 mmHg 31%
    14:00 +16°C° 0 mm 9 m/s 664 mmHg 33%
    15:00 +16°C° 0 mm 9 m/s 664 mmHg 35%
    16:00 +15°C° 0 mm 9 m/s 664 mmHg 38%
    17:00 +13°C° 0 mm 8 m/s 664 mmHg 42%
    18:00 +12°C° 0 mm 8 m/s 664 mmHg 46%
    19:00 +11°C° 0 mm 8 m/s 664 mmHg 47%
    20:00 +9°C° 0 mm 7 m/s 665 mmHg 47%
    21:00 +8°C° 0 mm 7 m/s 665 mmHg 47%
    22:00 +8°C° 0 mm 6 m/s 665 mmHg 47%
    23:00 +7°C° 0 mm 6 m/s 664 mmHg 47%

    2 Aprilie, Duminică

    Timp Temperatura Precipitaţii Vânt Presiune Umiditate
    00:00 +6°C° 0 mm 5 m/s 664 mmHg 47%
    01:00 +6°C° 0 mm 5 m/s 664 mmHg 48%
    02:00 +6°C° 0 mm 4 m/s 663 mmHg 50%
    03:00 +5°C° 0 mm 4 m/s 663 mmHg 51%
    04:00 +5°C° 0 mm 4 m/s 663 mmHg 54%
    05:00 +5°C° 0 mm 3 m/s 663 mmHg 56%
    06:00 +4°C° 0 mm 3 m/s 663 mmHg 58%
    07:00 +6°C° 0 mm 4 m/s 664 mmHg 54%
    08:00 +8°C° 0 mm 5 m/s 664 mmHg 50%
    09:00 +9°C° 0 mm 6 m/s 665 mmHg 46%
    10:00 +11°C° 0 mm 7 m/s 665 mmHg 41%
    11:00 +12°C° 0 mm 7 m/s 665 mmHg 36%
    12:00 +13°C° 0 mm 8 m/s 665 mmHg 31%
    13:00 +13°C° 0 mm 8 m/s 665 mmHg 30%
    14:00 +15°C° 0 mm 9 m/s 665 mmHg 28%
    15:00 +15°C° 0 mm 9 m/s 664 mmHg 26%
    16:00 +13°C° 0 mm 8 m/s 664 mmHg 29%
    17:00 +12°C° 0 mm 8 m/s 664 mmHg 32%
    18:00 +10°C° 0 mm 7 m/s 665 mmHg 36%
    19:00 +9°C° 0 mm 6 m/s 665 mmHg 43%
    20:00 +8°C° 0 mm 6 m/s 665 mmHg 51%
    21:00 +7°C° 0 mm 5 m/s 666 mmHg 59%
    22:00 +6°C° 0 mm 4 m/s 665 mmHg 63%
    23:00 +5°C° 0 mm 3 m/s 665 mmHg 68%
    Arată mai mult